Location: Hamilton Branch State Park
(33.7552°N, 82.2209°W)
Time: 11:14:18
(UTC-04:00)

Hubble Space Telescope - Pass Details

Date: 21 September 2019
Orbit: 536 x 540 km, 28.5° (Epoch: 13 October)

Event Time Altitude Azimuth Distance (km) Brightness Sun altitude
Exits shadow 06:47:21 - 246° (WSW) 2,000 3.1 -6.8°
Reaches altitude 10° 06:48:14 10° 237° (WSW) 1,777 2.9 -6.6°
Maximum altitude 06:50:38 15° 201° (SSW) 1,480 2.8 -6.1°
Drops below altitude 10° 06:53:01 10° 166° (SSE) 1,776 3.6 -5.6°
Sets 06:56:04 0° 142° (SE) 2,665 4.8 -5.0°
